This is the latest recevied weather packets stored in our database for station/object WD7OO. If no packets are shown the sender has not sent any weather packets the latest 10 day(s).
| Time | Temp. | Humidity | Pressure | Rain* | Wind** | Luminosity | Snow |
|---|---|---|---|---|---|---|---|
| 1788612647 | 22.22° C | 99% | 1014.8 hPa | 0 mm | - | 94 W/m² | - |
| 1788612344 | 22.22° C | 99% | 1015.1 hPa | 0 mm | - | 96 W/m² | - |
| 1788612039 | 21.67° C | 99% | 1014.6 hPa | 0 mm | - | 80 W/m² | - |
| 1788611735 | 21.67° C | 99% | 1014.6 hPa | 0 mm | - | 89 W/m² | - |
| 1788611432 | 21.67° C | 99% | 1014.4 hPa | 0 mm | - | 78 W/m² | - |
| 1788611131 | 21.67° C | 99% | 1014.1 hPa | 0 mm | - | 53 W/m² | - |
| 1788610826 | 21.67° C | 99% | 1014.2 hPa | 0 mm | - | 46 W/m² | - |
| 1788610521 | 21.67° C | 99% | 1014.2 hPa | 0 mm | - | 44 W/m² | - |
| 1788610221 | 21.67° C | 99% | 1014.1 hPa | 0 mm | - | 35 W/m² | - |
| 1788609915 | 21.67° C | 99% | 1014.3 hPa | 0 mm | - | 32 W/m² | - |
| 1788609611 | 21.67° C | 99% | 1014.3 hPa | 0 mm | - | 35 W/m² | - |
| 1788609334 | 21.67° C | 99% | 1014 hPa | 0 mm | - | 29 W/m² | - |
| 1788609004 | 21.67° C | 99% | 1014.1 hPa | 0 mm | - | 26 W/m² | - |
| 1788608704 | 21.67° C | 99% | 1013.9 hPa | 0 mm | - | 20 W/m² | - |
| 1788608403 | 21.67° C | 99% | 1014 hPa | 0 mm | - | 16 W/m² | - |
| 1788608098 | 21.67° C | 99% | 1014.1 hPa | 0 mm | - | 9 W/m² | - |
| 1788607793 | 21.67° C | 99% | 1014 hPa | 0 mm | - | 4 W/m² | - |
| 1788607489 | 21.67° C | 99% | 1014.1 hPa | 0 mm | - | 3 W/m² | - |
| 1788607183 | 21.67° C | 99% | 1013.8 hPa | 0 mm | - | 1 W/m² | - |
| 1788606878 | 21.67° C | 99% | 1014.1 hPa | 0 mm | - | 1 W/m² | - |
| 1788606578 | 21.67° C | 99% | 1013.8 hPa | 0 mm | - | 0 W/m² | - |
| 1788606272 | 21.67° C | 99% | 1013.6 hPa | 0 mm | - | 0 W/m² | - |
| 1788605972 | 21.67° C | 99% | 1013.7 hPa | 0 mm | - | 0 W/m² | - |
| 1788605666 | 21.67° C | 99% | 1013.6 hPa | 0 mm | - | 0 W/m² | - |
| 1788605366 | 21.11° C | 99% | 1013.5 hPa | 0 mm | - | 0 W/m² | - |
* Rain latest hour (hover to see other rain measurements)
** Current wind speed in m/s (hover to see current wind gust speed)